Weather in Belogorka

Russia / Amur Oblast     50°55′41″N   128°36′02″E
temp.,
°C
wind,
m/s
gust,
m/s
humid.,
%
clouds,
%
prec.,
mm/h
press.,
hPa
HPBL,
m
29 july, thu
thu2900:00+19wsw229126 0.0 100129
03:00+18wnw22925 0.0 100212
06:00+19wnw1190100 0.0 100214
09:00+23ssw2273100 0.0 1001385
12:00+27sw4564100 0.0 10011036
15:00+26sw3569100 0.0 10001041
18:00+27s456442 0.0 999499
21:00+21nw019199 4.4 100013
30 july, fri
fri3000:00+20wsw349598 1.3 99991
03:00+18wsw34920 1.4 99853
06:00+18w24931 0.0 99993
09:00+22w22772 0.0 999400
12:00+26w22595 0.0 10001025
15:00+28wnw235215 0.0 9991654
18:00+23n597293 0.2 1000350
21:00+20nne4977100 0.2 1002229
31 july, sat
sat3100:00+17nne3885100 0.0 1002190
03:00+16n3887100 0.0 1003201
06:00+16n4889100 0.1 1003268
09:00+15nne3593100 0.6 1004243
12:00+15n5896100 1.1 1004316
15:00+14nne51097100 4.4 1004429
18:00+15nne51197100 3.8 1003465
21:00+14nne6998100 4.6 1003421
1 august, sun
sun100:00+12nne61098100 2.3 1002312
03:00+12nne61099100 22.9 1000271
06:00+13nne61199100 30.0 998281
09:00+15nne46100100 39.1 998217
12:00+14wnw3499100 2.1 999190
15:00+13wnw3499100 3.2 1001268
18:00+13wnw3598100 0.1 1002332
21:00+12wnw2497100 0.2 1003259
2 august, mon
mon200:00+12wnw2498100 0.1 1003206
03:00+12w2297100 0.1 1003130
06:00+12w2396100 0.0 1004163
09:00+13wsw1293100 0.0 1005166
12:00+13sw2491100 0.0 1005293
15:00+17ssw358170 0.1 1005747
18:00+19sse34801 0.0 1006645
21:00+15se36940 0.1 100892